CW8014 Weather Reports


time (UTC)temp
C
wind
direction
speed
KPH
gust
KPH
rain 1hr
cm
rain 24hr
cm
rain mn
cm
humidity
%
barometer
mb
20190422075404 16 104 9.7 19.3 0.00 0.00 0.00 53 1013.2
20190422074403 16 96 9.7 20.9 0.00 0.00 0.00 54 1013.3
20190422070403 14 133 8.0 16.1 0.00 0.00 0.00 60 1013.4
20190422064403 13 115 9.7 20.9 0.00 0.00 0.00 62 1013.5
20190422063403 12 128 9.7 19.3 0.00 0.00 0.00 63 1013.6
20190422062403 12 101 9.7 17.7 0.00 0.00 0.00 64 1013.6
20190422061404 11 109 8.0 16.1 0.00 0.00 0.00 66 1013.7
20190422060404 11 129 8.0 19.3 0.00 0.00 0.00 67 1013.8
20190422054404 10 98 9.7 16.1 0.00 0.00 0.00 68 1013.7
20190422053404 10 98 8.0 16.1 0.00 0.00 0.00 69 1013.7
20190422051404 9 119 9.7 19.3 0.00 0.00 0.00 69 1013.8
20190422045404 9 119 9.7 16.1 0.00 0.00 0.00 69 1013.7
20190422044404 9 105 9.7 17.7 0.00 0.00 0.00 69 1013.7
20190422042404 9 107 6.4 14.5 0.00 0.00 0.00 69 1013.8
20190422041404 9 117 6.4 12.9 0.00 0.00 0.00 68 1013.8
20190422040405 9 96 8.0 14.5 0.00 0.00 0.00 68 1013.9
20190422035404 9 101 6.4 12.9 0.00 0.00 0.00 68 1014.0
20190422033405 10 119 8.0 17.7 0.00 0.00 0.00 66 1014.1
20190422031405 10 88 8.0 12.9 0.00 0.00 0.00 66 1014.2
20190422025405 10 101 6.4 16.1 0.00 0.00 0.00 65 1014.4
20190422023405 10 121 8.0 16.1 0.00 0.00 0.00 64 1014.5
20190422021405 10 126 6.4 11.3 0.00 0.00 0.00 65 1014.7
20190422020405 10 103 4.8 9.7 0.00 0.00 0.00 66 1014.8
20190422015405 10 86 6.4 12.9 0.00 0.00 0.00 66 1014.9
20190422014405 10 105 8.0 12.9 0.00 0.00 0.00 65 1015.1
20190422012405 10 121 8.0 12.9 0.00 0.00 0.00 66 1015.2
20190422010406 11 128 6.4 12.9 0.00 0.00 0.00 67 1015.3
20190422005406 10 101 6.4 12.9 0.00 0.00 0.00 70 1015.4
20190422004406 10 128 4.8 11.3 0.00 0.00 0.00 73 1015.6
20190422001406 7 74 3.2 8.0 0.00 0.00 0.00 87 1015.8
20190421234406 7 59 3.2 8.0 0.00 0.00 0.00 88 1015.9
20190421232406 8 64 1.6 4.8 0.00 0.00 0.00 87 1016.0
20190421224406 8 84 3.2 6.4 0.00 0.00 0.00 84 1016.2
20190421223406 8 55 1.6 3.2 0.00 0.00 0.00 83 1016.2
20190421222407 9 55 1.6 3.2 0.00 0.00 0.00 82 1016.2
20190421221407 10 55 0.0 1.6 0.00 0.00 0.00 81 1016.2
20190421214407 10 53 0.0 1.6 0.00 0.00 0.00 80 1016.3
20190421212407 11 65 1.6 4.8 0.00 0.00 0.00 76 1016.4
20190421210407 11 56 3.2 6.4 0.00 0.00 0.00 74 1016.6
20190421205407 11 39 3.2 8.0 0.00 0.00 0.00 74 1016.6
20190421204407 11 63 3.2 6.4 0.00 0.00 0.00 73 1016.7
20190421203407 11 78 1.6 8.0 0.00 0.00 0.00 73 1016.7
20190421202407 12 55 1.6 4.8 0.00 0.00 0.00 71 1016.9
20190421201407 12 90 3.2 4.8 0.00 0.00 0.00 70 1016.9
20190421200407 13 33 3.2 8.0 0.00 0.00 0.00 66 1017.0
20190421195408 14 46 3.2 9.7 0.00 0.00 0.00 64 1017.0
20190421191408 15 69 6.4 14.5 0.00 0.00 0.00 59 1017.0
20190421185408 15 51 1.6 6.4 0.00 0.00 0.00 55 1017.0
20190421183408 17 72 3.2 8.0 0.00 0.00 0.00 46 1016.9
20190421181408 18 84 3.2 8.0 0.00 0.00 0.00 43 1016.8
20190421180408 20 59 4.8 8.0 0.00 0.00 0.00 40 1016.7
20190421174409 21 88 6.4 14.5 0.00 0.00 0.00 37 1016.7
20190421173409 21 123 6.4 12.9 0.00 0.00 0.00 37 1016.8
20190421170408 22 93 9.7 17.7 0.00 0.00 0.00 32 1016.9
20190421164409 22 93 4.8 12.9 0.00 0.00 0.00 31 1017.1
20190421163409 22 127 6.4 14.5 0.00 0.00 0.00 33 1017.2
20190421162409 22 136 4.8 9.7 0.00 0.00 0.00 33 1017.2
20190421161409 22 115 4.8 11.3 0.00 0.00 0.00 33 1017.4
20190421155409 22 117 9.7 17.7 0.00 0.00 0.00 31 1017.6
20190421154409 22 110 6.4 14.5 0.00 0.00 0.00 32 1017.8
20190421145410 22 65 6.4 12.9 0.00 0.00 0.00 32 1018.3
20190421144409 22 126 4.8 14.5 0.00 0.00 0.00 29 1018.4
20190421142410 23 213 4.8 9.7 0.00 0.00 0.00 30 1018.7
20190421140410 23 101 8.0 17.7 0.00 0.00 0.00 28 1019.0
20190421133410 22 98 3.2 8.0 0.00 0.00 0.00 42 1019.4
20190421132410 22 150 3.2 9.7 0.00 0.00 0.00 36 1019.5
20190421131410 21 76 9.7 17.7 0.00 0.00 0.00 37 1019.7
20190421125400 21 331 4.8 9.7 0.00 0.00 0.00 41 1020.1
20190421122400 21 55 6.4 14.5 0.00 0.00 0.00 41 1020.5
20190421121400 21 55 8.0 16.1 0.00 0.00 0.00 40 1020.7
20190421113401 20 108 8.0 14.5 0.00 0.00 0.00 36 1021.2
20190421112401 20 153 8.0 14.5 0.00 0.00 0.00 39 1021.3
20190421111401 20 113 4.8 11.3 0.00 0.00 0.00 39 1021.4
20190421110401 20 79 8.0 17.7 0.00 0.00 0.00 38 1021.5
20190421105401 19 101 3.2 12.9 0.00 0.00 0.00 40 1021.7
20190421104401 20 179 8.0 16.1 0.00 0.00 0.00 42 1021.8
20190421103401 20 123 8.0 17.7 0.00 0.00 0.00 43 1021.9
20190421101401 18 117 11.3 20.9 0.00 0.00 0.00 46 1022.3
20190421100401 18 234 6.4 12.9 0.00 0.00 0.00 48 1022.4
20190421092401 17 141 6.4 12.9 0.00 0.00 0.00 50 1022.8
20190421085402 16 63 3.2 9.7 0.00 0.00 0.00 58 1023.1
20190421084402 15 140 6.4 12.9 0.00 0.00 0.00 56 1023.2